Coldwater, MI

8:11 AM EDT on September 22, 2017 (GMT -0400)
Branch County Memorial

Weather History for KOEB - December, 2012

Change the Weather History Date:

Wednesday, December 26, 2012

  Actual Average (KJYM) Record (KJYM)
Temperature  
Mean Temperature 26 °F -  
Max Temperature 28 °F 28 °F 64 °F (1982)
Min Temperature 23 °F 14 °F -15 °F (1983)
Degree Days  
Heating Degree Days 39    
Moisture  
Dew Point 23 °F    
Average Humidity 83    
Maximum Humidity 92    
Minimum Humidity 69    
Precipitation  
Precipitation 0.00 in - - ()
Sea Level Pressure  
Sea Level Pressure 29.96 in    
Wind  
Wind Speed 15 mph (NNE)    
Max Wind Speed 23 mph    
Max Gust Speed 30 mph    
Visibility 6 miles    
Events Snow    
Averages and records for this station are not official NWS values.
T = Trace of Precipitation, MM = Missing Value Source: NWS Daily Summary

Daily Weather History Graph

Daily Weather History Graph

Search for Another Location

Airport or City:

Trip Planner

Search our weather history database for the weather conditions in past years. The results will help you decide how hot, cold, wet, or windy it might be!

Date:

Astronomy

Dec. 26, 2012 Rise Set
Actual Time 8:06 AM EST 5:15 PM EST
Civil Twilight 7:35 AM EST 5:47 PM EST
Nautical Twilight 7:00 AM EST 6:22 PM EST
Astronomical Twilight 6:26 AM EST 6:56 PM EST
Moon 4:08 PM EST (12/26) 6:29 AM EST (12/26)
Length of Visible Light 10h 11m
Length of Day
9h 08m
Waxing Gibbous, 97% of the Moon is Illuminated
Dec 26
Waxing Gibbous
Dec 28
Full
Jan 4
Last Quarter
Jan 11
New
Jan 18
First Quarter

Hourly Weather History & Observations

Time (EST) Temp. Windchill Dew Point Humidity Pressure Visibility Wind Dir Wind Speed Gust Speed Precip Events Conditions
12:15 AM 27.9 °F 17.3 °F 19.0 °F 69% 30.21 in 10.0 mi ENE 12.7 mph - N/A   Overcast
12:34 AM 27.9 °F 17.3 °F 19.4 °F 71% 30.20 in 10.0 mi NE 12.7 mph - N/A   Overcast
12:55 AM 27.9 °F 17.3 °F 20.1 °F 73% 30.18 in 10.0 mi NE 12.7 mph - N/A   Overcast
1:15 AM 28.0 °F 18.1 °F 20.8 °F 74% 30.17 in 10.0 mi NE 11.5 mph - N/A   Overcast
1:34 AM 28.0 °F 18.1 °F 21.2 °F 76% 30.16 in 10.0 mi NE 11.5 mph 19.6 mph N/A   Overcast
1:55 AM 28.0 °F 17.5 °F 21.7 °F 77% 30.16 in 10.0 mi NE 12.7 mph - N/A   Overcast
2:15 AM 28.0 °F 18.6 °F 21.9 °F 78% 30.16 in 10.0 mi NE 10.4 mph - N/A   Overcast
2:34 AM 28.0 °F 18.1 °F 22.1 °F 78% 30.16 in 10.0 mi NE 11.5 mph - N/A   Overcast
2:55 AM 28.0 °F 17.5 °F 22.3 °F 79% 30.15 in 10.0 mi NE 12.7 mph - N/A   Overcast
3:15 AM 27.9 °F 15.9 °F 22.6 °F 81% 30.10 in 10.0 mi NE 16.1 mph 23.0 mph N/A   Overcast
3:34 AM 28.0 °F 16.1 °F 23.0 °F 81% 30.09 in 10.0 mi NE 16.1 mph 20.7 mph N/A   Overcast
3:55 AM 28.0 °F 16.1 °F 23.9 °F 84% 30.07 in 10.0 mi NE 16.1 mph 20.7 mph N/A   Overcast
4:15 AM 27.9 °F 15.9 °F 24.4 °F 87% 30.06 in 10.0 mi NE 16.1 mph 21.9 mph N/A   Overcast
4:34 AM 28.0 °F 17.5 °F 25.3 °F 90% 30.08 in 10.0 mi ENE 12.7 mph 23.0 mph N/A   Overcast
4:55 AM 28.0 °F 16.5 °F 25.5 °F 90% 30.07 in 10.0 mi ENE 15.0 mph 20.7 mph N/A   Overcast
5:15 AM 28.4 °F 16.6 °F 25.0 °F 87% 30.06 in 10.0 mi NE 16.1 mph 20.7 mph N/A   Overcast
5:34 AM 28.8 °F 16.6 °F 24.6 °F 84% 30.06 in 10.0 mi NE 17.3 mph 21.9 mph N/A   Overcast
5:55 AM 28.8 °F 16.2 °F 23.9 °F 82% 30.04 in 10.0 mi NE 18.4 mph 25.3 mph N/A   Overcast
6:14 AM 28.8 °F 15.9 °F 23.7 °F 81% 30.02 in 10.0 mi NE 19.6 mph 24.2 mph N/A   Overcast
6:35 AM 28.9 °F 17.3 °F 23.2 °F 79% 30.01 in 10.0 mi NE 16.1 mph 24.2 mph N/A   Overcast
6:55 AM 28.9 °F 16.9 °F 23.0 °F 78% 30.00 in 10.0 mi NE 17.3 mph 27.6 mph N/A   Overcast
7:14 AM 28.9 °F 16.5 °F 22.8 °F 78% 30.00 in 10.0 mi NE 18.4 mph 24.2 mph N/A   Overcast
7:35 AM 28.8 °F 17.9 °F 22.1 °F 76% 30.00 in 10.0 mi NE 13.8 mph 27.6 mph N/A   Overcast
7:55 AM 28.6 °F 16.0 °F 22.1 °F 77% 30.00 in 10.0 mi NE 18.4 mph 25.3 mph N/A   Overcast
8:14 AM 28.4 °F 15.4 °F 21.9 °F 77% 29.98 in 10.0 mi NE 19.6 mph 27.6 mph N/A   Overcast
8:35 AM 28.4 °F 14.7 °F 21.7 °F 76% 29.96 in 10.0 mi NE 21.9 mph 26.5 mph N/A   Overcast
8:55 AM 28.4 °F 15.8 °F 21.9 °F 77% 29.95 in 10.0 mi NE 18.4 mph 28.8 mph N/A   Overcast
9:14 AM 28.4 °F 15.4 °F 21.9 °F 77% 29.94 in 10.0 mi NE 19.6 mph 28.8 mph N/A   Overcast
9:35 AM 28.4 °F 15.1 °F 21.9 °F 77% 29.94 in 10.0 mi NE 20.7 mph 28.8 mph N/A   Overcast
9:55 AM 28.4 °F 15.4 °F 22.1 °F 77% 29.93 in 7.0 mi NE 19.6 mph 29.9 mph N/A Snow Light Snow
10:14 AM 28.8 °F 14.9 °F 22.1 °F 76% 29.92 in 10.0 mi NE 23.0 mph 29.9 mph N/A   Overcast
10:35 AM 28.8 °F 15.5 °F 22.5 °F 77% 29.92 in 5.0 mi NNE 20.7 mph 28.8 mph N/A Snow Light Snow
10:54 AM 28.9 °F 16.9 °F 22.8 °F 78% 29.92 in 2.5 mi NE 17.3 mph 28.8 mph N/A Snow Light Snow
11:15 AM 28.4 °F 16.6 °F 23.9 °F 83% 29.92 in 1.5 mi NE 16.1 mph 21.9 mph N/A Snow Light Snow
11:35 AM 28.4 °F 15.8 °F 23.7 °F 83% 29.91 in 3.0 mi NE 18.4 mph 27.6 mph N/A Snow Light Snow
11:54 AM 28.0 °F 14.6 °F 24.4 °F 86% 29.88 in 0.5 mi NNE 20.7 mph 29.9 mph N/A Snow Snow
12:15 PM 28.0 °F 16.1 °F 25.2 °F 89% 29.88 in 0.8 mi NNE 16.1 mph 21.9 mph N/A Snow Light Snow
12:35 PM 27.9 °F 16.8 °F 25.3 °F 90% 29.86 in 1.0 mi NNE 13.8 mph 21.9 mph N/A Snow Light Snow
12:54 PM 27.9 °F 15.1 °F 25.3 °F 90% 29.85 in 0.8 mi NNE 18.4 mph 26.5 mph N/A Snow Light Snow
1:15 PM 27.9 °F 17.3 °F 25.3 °F 90% 29.84 in 0.5 mi NNE 12.7 mph 25.3 mph N/A Snow Snow
1:34 PM 28.0 °F 15.7 °F 25.3 °F 90% 29.84 in 1.0 mi NNE 17.3 mph 25.3 mph N/A Snow Light Snow
1:55 PM 27.9 °F 15.1 °F 25.5 °F 91% 29.84 in 0.5 mi NNE 18.4 mph 23.0 mph N/A Snow Snow
2:15 PM 27.7 °F 15.6 °F 25.2 °F 90% 29.83 in 0.5 mi NNE 16.1 mph 24.2 mph N/A Snow Light Snow
2:55 PM 27.5 °F 15.9 °F 24.8 °F 90% 29.83 in 1.0 mi NNE 15.0 mph 23.0 mph N/A Snow Light Snow
3:14 PM 27.5 °F 15.4 °F 25.0 °F 90% 29.84 in 1.0 mi NNE 16.1 mph - N/A Snow Light Snow
3:35 PM 27.5 °F 16.3 °F 25.2 °F 91% 29.84 in 0.5 mi NNE 13.8 mph 21.9 mph N/A Snow Snow
3:55 PM 27.5 °F 16.8 °F 25.3 °F 92% 29.84 in 0.5 mi NNE 12.7 mph 19.6 mph N/A Snow Light Snow
4:14 PM 27.5 °F 16.3 °F 25.0 °F 90% 29.83 in 1.0 mi North 13.8 mph 20.7 mph N/A Snow Light Snow
4:35 PM 27.5 °F 18.0 °F 24.8 °F 90% 29.84 in 1.5 mi North 10.4 mph - N/A Snow Light Snow
4:55 PM 27.5 °F 17.4 °F 24.6 °F 89% 29.85 in 2.5 mi NNE 11.5 mph 18.4 mph N/A Snow Light Snow
5:14 PM 27.5 °F 17.4 °F 24.6 °F 89% 29.86 in 1.8 mi North 11.5 mph 16.1 mph N/A Snow Light Snow
5:35 PM 27.1 °F 16.4 °F 24.1 °F 88% 29.87 in 1.5 mi NNE 12.7 mph 20.7 mph N/A Snow Light Snow
5:55 PM 26.6 °F 15.2 °F 24.3 °F 91% 29.87 in 1.8 mi NNE 13.8 mph 18.4 mph N/A Snow Light Snow
6:14 PM 26.4 °F 15.5 °F 23.0 °F 87% 29.88 in 1.8 mi NNE 12.7 mph 26.5 mph N/A Snow Light Snow
6:35 PM 26.4 °F 14.0 °F 23.0 °F 87% 29.88 in 2.5 mi North 16.1 mph - N/A Snow Light Snow
6:55 PM 26.6 °F 14.7 °F 23.0 °F 86% 29.89 in 3.0 mi North 15.0 mph 19.6 mph N/A Snow Light Snow
7:14 PM 26.6 °F 16.2 °F 23.0 °F 86% 29.89 in 4.0 mi North 11.5 mph 18.4 mph N/A Snow Light Snow
7:35 PM 26.4 °F 15.5 °F 23.4 °F 88% 29.90 in 3.0 mi North 12.7 mph 18.4 mph N/A Snow Light Snow
7:54 PM 26.4 °F 17.3 °F 23.7 °F 90% 29.90 in 2.5 mi NNW 9.2 mph - N/A Snow Light Snow
8:14 PM 26.6 °F 16.2 °F 23.4 °F 88% 29.90 in 4.0 mi North 11.5 mph - N/A Snow Light Snow
8:35 PM 26.2 °F 15.8 °F 23.0 °F 88% 29.90 in 5.0 mi NNW 11.5 mph - N/A Snow Light Snow
8:54 PM 26.1 °F 14.0 °F 23.0 °F 88% 29.90 in 5.0 mi North 15.0 mph - N/A Snow Light Snow
9:15 PM 25.7 °F 14.6 °F 22.8 °F 89% 29.90 in 5.0 mi North 12.7 mph - N/A Snow Light Snow
9:35 PM 25.7 °F 14.6 °F 22.3 °F 87% 29.90 in 7.0 mi North 12.7 mph 19.6 mph N/A   Overcast
9:54 PM 25.7 °F 14.0 °F 21.6 °F 84% 29.90 in 7.0 mi North 13.8 mph 19.6 mph N/A   Overcast
10:15 PM 25.7 °F 14.0 °F 20.7 °F 81% 29.91 in 10.0 mi North 13.8 mph 25.3 mph N/A   Overcast
10:35 PM 25.5 °F 12.9 °F 20.7 °F 82% 29.91 in 10.0 mi North 16.1 mph 19.6 mph N/A   Overcast
10:54 PM 25.0 °F 14.8 °F 20.3 °F 82% 29.92 in 10.0 mi North 10.4 mph 18.4 mph N/A   Overcast
11:15 PM 24.6 °F 12.7 °F 19.9 °F 82% 29.92 in 10.0 mi North 13.8 mph 18.4 mph N/A   Overcast
11:35 PM 24.3 °F 13.3 °F 19.8 °F 83% 29.92 in 10.0 mi North 11.5 mph 17.3 mph N/A   Overcast
11:54 PM 23.9 °F 12.9 °F 19.4 °F 83% 29.93 in 10.0 mi North 11.5 mph - N/A   Overcast